Weather History for PABT - December, 2012

Change the Weather History Date:

Tuesday, December 4, 2012

  Actual Average Record
Temperature  
Mean Temperature -20 °F -  
Max Temperature -9 °F -1 °F 28 °F (1984)
Min Temperature -32 °F -16 °F -48 °F (1970)
Degree Days  
Heating Degree Days 86    
Moisture  
Dew Point -21 °F    
Average Humidity 71    
Maximum Humidity 78    
Minimum Humidity 57    
Precipitation  
Precipitation 0.00 in - - ()
Snow  
Snow 0.00 in - - ()
Snow Depth 1.00 in    
Sea Level Pressure  
Sea Level Pressure 30.17 in    
Wind  
Wind Speed 6 mph (NNW)    
Max Wind Speed 9 mph    
Max Gust Speed -    
Visibility 10 miles    
Events      
Averages and records for this station are not official NWS values.
T = Trace of Precipitation, MM = Missing Value Source: NWS Daily Summary

Daily Weather History Graph

Daily Weather History Graph

Search for Another Location

Airport or City:

Trip Planner

Search our weather history database for the weather conditions in past years. The results will help you decide how hot, cold, wet, or windy it might be!

Date:

Astronomy

Dec. 04, 2012 Rise Set
Actual Time 11:27 AM AKST 2:25 PM AKST
Civil Twilight 9:46 AM AKST 4:05 PM AKST
Nautical Twilight 8:28 AM AKST 5:24 PM AKST
Astronomical Twilight 7:22 AM AKST 6:30 PM AKST
Moon 10:52 PM AKST (12/4) 1:08 PM AKST (12/4)
Length of Visible Light 6h 18m
Length of Day
2h 57m
Waning Gibbous, 68% of the Moon is Illuminated
Dec 4
Waning Gibbous
Dec 6
Last Quarter
Dec 12
New
Dec 19
First Quarter
Dec 28
Full

Hourly Weather History & Observations

Time (AKST) Temp. Windchill Dew Point Humidity Pressure Visibility Wind Dir Wind Speed Gust Speed Precip Events Conditions
12:53 AM -18.9 °F -34.0 °F -24.0 °F 78% 30.26 in 10.0 mi NNW 5.8 mph - N/A   Clear
1:53 AM -18.0 °F -30.9 °F -24.0 °F 74% 30.26 in 10.0 mi NNW 4.6 mph - N/A   Clear
3:53 AM -18.0 °F -34.7 °F -24.0 °F 74% 30.24 in 10.0 mi NNW 6.9 mph - N/A   Clear
4:53 AM -17.0 °F -33.4 °F -23.1 °F 74% 30.22 in 10.0 mi NW 6.9 mph - N/A   Clear
5:53 AM -17.0 °F -34.8 °F -23.1 °F 74% 30.21 in 10.0 mi NNW 8.1 mph - N/A   Clear
6:53 AM -18.0 °F -36.1 °F -24.0 °F 74% 30.21 in 10.0 mi NNW 8.1 mph - N/A   Clear
7:53 AM -16.1 °F -30.6 °F -22.0 °F 74% 30.20 in 10.0 mi NNW 5.8 mph - N/A   Clear
8:53 AM -16.1 °F -33.7 °F -22.0 °F 74% 30.19 in 10.0 mi NNW 8.1 mph - N/A   Partly Cloudy
9:53 AM -17.0 °F -31.7 °F -23.1 °F 74% 30.19 in 10.0 mi NW 5.8 mph - N/A   Partly Cloudy
10:53 AM -15.0 °F -29.3 °F -20.9 °F 75% 30.19 in 10.0 mi NW 5.8 mph - N/A   Partly Cloudy
11:53 AM -15.0 °F -32.4 °F -20.9 °F 75% 30.18 in 10.0 mi NNE 8.1 mph - N/A   Partly Cloudy
12:53 PM -15.0 °F -27.4 °F -20.9 °F 75% 30.18 in 10.0 mi NNW 4.6 mph - N/A   Partly Cloudy
1:53 PM -15.0 °F -27.4 °F -20.9 °F 75% 30.17 in 10.0 mi NW 4.6 mph - N/A   Partly Cloudy
2:53 PM -16.1 °F -30.6 °F -22.0 °F 74% 30.16 in 10.0 mi NW 5.8 mph - N/A   Partly Cloudy
3:53 PM -11.9 °F -27.3 °F -18.9 °F 71% 30.13 in 10.0 mi North 6.9 mph - N/A   Partly Cloudy
4:53 PM -11.0 °F -22.8 °F -18.0 °F 71% 30.12 in 10.0 mi North 4.6 mph - N/A   Partly Cloudy
5:53 PM -11.0 °F -27.6 °F -18.9 °F 68% 30.11 in 10.0 mi North 8.1 mph - N/A   Clear
6:53 PM -13.0 °F -25.1 °F -18.9 °F 75% 30.12 in 10.0 mi Variable 4.6 mph - N/A   Clear
7:53 PM -15.0 °F -29.3 °F -20.9 °F 75% 30.12 in 10.0 mi NNW 5.8 mph - N/A   Clear
8:53 PM -11.9 °F -28.7 °F -18.9 °F 71% 30.10 in 10.0 mi North 8.1 mph - N/A   Clear
9:53 PM -9.9 °F -27.5 °F -18.0 °F 68% 30.10 in 10.0 mi North 9.2 mph - N/A   Clear
10:53 PM -13.0 °F -27.0 °F -20.0 °F 71% 30.10 in 10.0 mi North 5.8 mph - N/A   Clear
11:53 PM -11.0 °F -28.8 °F -18.9 °F 68% 30.09 in 10.0 mi North 9.2 mph - N/A   Partly Cloudy